[Iaude] MPEC D118: S/2022 J 3 [a=0.14,e=0.21,i=145.7,H=17.34]
    mpec at cfa.harvard.edu 
    mpec at cfa.harvard.edu
       
    Fri Feb 23 04:11:24 EST 2024
    
    
  
M.P.E.C. 2024-D118                            Issued 2024 February 23, 09:09 UT
     The Minor Planet Electronic Circulars contain information on unusual
         minor planets, routine data on comets and natural satellites,
         and occasional editorial announcements.  They are published
    on behalf of Division F of the International Astronomical Union by the
          Minor Planet Center, Smithsonian Astrophysical Observatory,
                          Cambridge, MA 02138, U.S.A.
			  
             Prepared using the Tamkin Foundation Computer Network
                              MPC at CFA.HARVARD.EDU
            URL https://www.minorplanetcenter.net/    ISSN 1523-6714
                                   S/2022 J 3                                   
                              Satellite of Jupiter                              
                           Revision to MPEC 2023-D46                            
Additional Observations:
    SK22J030 6C2003 02 26.45856808 42 14.08 +18 39 23.6          24.4 rWED118T14
    SK22J030 6C2003 02 26.48072308 42 13.52 +18 39 24.9          24.4 rWED118T14
    SK22J030 6C2003 02 27.38455008 41 51.29 +18 40 25.7          24.2 rWED118T14
    SK22J030 6C2003 02 27.41435708 41 50.55 +18 40 27.7          24.4 rWED118T14
    SK22J030 6C2003 02 28.47586708 41 24.97 +18 41 35.9          24.2 rWED118T14
    SK22J030 6C2003 02 28.50587908 41 24.22 +18 41 37.8          24.3 rWED118T14
    SK22J030 5C2010 10 02.37590623 44 35.21 -03 01 57.0          23.7 rWED118T14
    SK22J030 5C2010 10 02.37808623 44 35.15 -03 01 57.3                WED118T14
    SK22J030 5C2010 10 02.38026423 44 35.10 -03 01 57.4                WED118T14
    SK22J030 5C2010 10 02.38243923 44 35.03 -03 01 57.7                WED118T14
    SK22J030 5C2010 10 02.38461823 44 34.98 -03 01 58.0                WED118T14
    SK22J030 /C2018 05 11.14321214 57 32.78 -15 59 33.3          23.9 rWED118W84
    SK22J030 /C2018 05 11.14815114 57 32.64 -15 59 33.2          23.9 rWED118W84
    SK22J030 /C2018 05 11.16826914 57 32.03 -15 59 31.4                WED118W84
    SK22J030 /C2018 05 11.17311514 57 31.89 -15 59 30.9          23.9 rWED118W84
    SK22J030 &C2021 08 18.19939522 05 44.71 -13 08 52.1          23.4 iWED118W84
    SK22J030 &C2022 09 14.19603400 15 01.23 +00 07 56.6          23.6 zWED118W84
    SK22J030 &C2022 10 02.15784100 06 18.30 -00 34 23.8          23.8 rWED118W84
    SK22J030  C2023 10 06.28562 02 49 01.352+13 35 09.09         24.3 rVED118304
    SK22J030  C2023 10 06.30292 02 49 00.880+13 35 06.32         24.4 rVED118304
    SK22J030  C2023 10 07.29068 02 48 35.315+13 32 49.22         24.3 rVED118304
    SK22J030  C2023 10 07.31802 02 48 34.583+13 32 45.19         24.3 rVED118304
Observer details:
304 Las Campanas Observatory.  Observer S. S. Sheppard.  6.5-m Magellan-Baade
    telescope + CCD.
T14 Canada-France-Hawaii Telescope, Maunakea.  Observers S. S. Sheppard, B. J.
    Gladman, C. Veillet.  Measurers K. Ly, S. Deen.  3.6-m Canada-France-
    Hawaii Telescope + CCD, 3.58-m Canada-France-Hawaii Telescope + CCD.
W84 Cerro Tololo-DECam.  Observers S. S. Sheppard, S. Mau, W. Cerry, A. Rest,
    P. Wang.  Measurers K. Ly, S. Deen.  4.0-m CTIO reflector + CCD, 4.0-m
    reflector + CCD.
Orbital elements:
    S/2022 J 3                                                                  
Epoch 2024 Mar. 31.0 TT = JDT 2460400.5                 Alexandersen            
M 294.51229              (2000.0)            P               Q                  
n   0.59808555     Peri.   67.60587     -0.44521417     -0.75770717             
a   0.1373821      Node   302.06960     -0.87549863     +0.48014415             
e   0.2125986      Incl.  145.73211     +0.18784700     +0.44197447             
P   1.65           H   17.3           P/d   601.92                              
>From 34 observations 2003 Feb. 26-2023 Oct. 07, mean residual 0".16             
Residuals in seconds of arc
030226 T14  0.1+  0.1+    180511 W84  0.1-  0.2-    221015 304  0.1+  0.1-
030226 T14  0.2+  0.1-    180511 W84  0.1-  0.1-    221015 304  0.5+  0.1-
030227 T14  0.0   0.1+    180511 W84  0.0   0.0     221016 304  0.0   0.0
030227 T14  0.1+  0.2+    210818 W84  0.2-  0.3-    221016 304  0.1+  0.1-
030228 T14  0.3+  0.1-    220830 807  0.1+  0.0     221117 304  0.2-  0.0
030228 T14  0.0   0.0     220830 807  0.2-  0.3-    221118 304  0.2-  0.0
101002 T14  0.1+  0.0     220902 807  0.4-  0.1-    231006 304  0.1+  0.0
101002 T14  0.1+  0.1-    220902 807  0.0   0.2+    231006 304  0.1-  0.4-
101002 T14  0.3+  0.1+    220914 W84  0.1+  0.0     231007 304  0.1-  0.0
101002 T14  0.2+  0.1+    220918 304  0.3-  0.0     231007 304  0.1-  0.2-
101002 T14  0.3+  0.0     220918 304  0.4+  0.2+
180511 W84  0.2-  0.1+    221002 W84  0.0   0.1-
M. P. C. Staff               (C) Copyright 2024 MPC           M.P.E.C. 2024-D118
    
    
More information about the Iaude
mailing list